QUI SOM?

ITER5 és una empresa especialitzada en el cronometratge i gestió esportiva. Ens adrecem a les institucions públiques i privades, als clubs i associacions esportives per tal de proporcionar els nostres coneixements i recursos.

INFORMACIÓ
  • Complex la Caparrella. Ed. CEEI. 2.7 - 25192 - LLEIDA
  • Lat.: 41.599045 | Long.: 0.581511
  • 635-164-197 / 654-555-394
  • info@iter5.cat

Resultats Xallenge Duaigües - Almatret - Llarga - Edició 2017

Pos. Dorsal Nom T.Oficial
1 110 XAVIER VAZQUEZ FORS 01:58:20
2 213 JAVIER GIMENEZ 01:58:20
3 57 ESTEBAN LEIS CES 01:58:46
4 182 RUBÉN ALBIOL VIZCARRO 01:59:22
5 183 JOSEP ALGUERO QUERAL 02:01:18
6 195 DAVID CABRERA ARNALDO 02:01:24
7 225 ALEXANDRE MARRASE ORTIZ 02:02:03
8 238 CARLOS PINA TORNER 02:02:20
9 216 JORGE GOMEZ PEREZ 02:02:44
10 108 SALVADOR TRIAS SENTIS 02:03:28
11 248 JORDI TEMPORAL BASSA 02:03:31
12 56 DANIEL LEBRON ESTRELLA 02:04:23
13 78 MIQUEL PEIRÓ CARDET 02:05:00
14 211 ROBERT FIGUEROLA COCH 02:05:32
15 16 DAVID CABALLE FONTANET 02:05:33
16 81 RAMON PINILLA PEREZ 02:05:48
17 38 JOAN AMADEU GILI NOGUERA 02:05:52
18 27 GABRIEL ESTEBAN CAPDEVILA 02:06:17
19 205 SERGI ESCODA FREIXAS 02:06:27
20 126 JORDI BERTOMEU COLOMINES 02:06:37
21 64 DAVID MARGALEF PALLARES 02:06:54
22 39 JÚRIC GIMENEZ ESQUERRE 02:07:19
23 47 HECTOR GUIRAL DE DIOS 02:07:59
24 193 OSCAR BOVER FALCÓ 02:08:33
25 72 DANI MOLINA GARCIA 02:08:43
26 21 ERIC CASTELLO GARCIA 02:09:15
27 233 EDUARD PALAU BORREGUERO 02:09:16
28 61 DANI LOUREIRO 02:09:34
29 37 CARLES GENE GIRON 02:09:39
30 203 DANI DIAZ CARULLA 02:09:47
31 217 JOSEP GORRES SALVADÓ 02:09:49
32 305 RUBEN MARÍN RUZAFA 02:10:56
33 207 SERGI ESCRIBA BLANCH 02:11:13
34 114 ROBERT VISA MIR 02:11:17
35 28 ALEX ESTEVE BERNAUS 02:11:18
36 201 MANUEL CRESPO BLASCO 02:11:19
37 517 DAVID SEREROLS TORRAS 02:11:44
38 214 JAVIER GINE CID 02:12:42
39 251 VICTOR VICENTE MAURI 02:12:42
40 206 LLUÍS ESCODA FREIXAS 02:13:04
41 100 DANI SANCHEZ PASCUAL 02:13:04
42 41 FRANCESC GIRONES TORRELLES 02:13:37
43 90 CARLES PUJOL LONCÀ 02:13:42
44 187 ISAAC BALANYÀ CARRERAS 02:14:09
45 218 DAVID GRIFOLL VIDAL 02:14:11
46 14 CARLOS BORBON BELTRAN 02:14:23
47 252 ARMANDO VIDAL VALLE 02:14:23
48 73 GERARD MONTANE TARRAGONA 02:14:26
49 93 JOAQUÍN REYES VILLAGRASA 02:15:15
50 200 JORDI CONESA MASA 02:15:58
51 92 BERNAT REÑE BELLMUNT 02:17:05
52 341 RAUL SANCHEZ GARCIA 02:17:22
53 13 MARC BENITO BLANCH 02:17:30
54 243 JOAN CARLES ROSELL CARDONA 02:18:27
55 288 JUANJO FLORENSA DE ALFONSO 02:18:36
56 188 ALBERT BALUÉ TREPAT 02:19:23
57 94 MANEL ROCA VISA 02:19:23
58 113 XAVIER VILELLA SANTAMARIA 02:20:31
59 120 AGUSTI ARBONES CABA 02:20:44
60 234 JORDI PALAU PIÑOL 02:21:08
61 87 ORIOL PRADES VIVES 02:21:25
62 152 MARC JARNÉ BONEL 02:21:50
63 239 SANDRO QUEROL VALLDEPÉREZ 02:22:07
64 342 JEREMY SANCHEZ MORALES 02:22:43
65 226 MARC MASDEU MASALLES 02:22:50
66 186 JAVIER BAGUE GARI 02:23:09
67 17 ROGER CABOS TEIXIDO 02:23:27
68 227 JOSEP RAMON MONTANER SOLÀ 02:23:43
69 173 CARLES SAURET GODIA 02:23:49
70 278 XAVIER DESCARREGA DE LA VEGA 02:23:51
71 103 DAMIA SANTAMARIA GILI 02:24:03
72 138 TONI GARCIA CRUZ 02:24:14
73 46 MAGÍ GUAL VALVERDE 02:24:27
74 199 JOSE LUIS COLLAR GALLEGO 02:24:29
75 317 OSCAR NAVAL 02:24:52
76 76 JOSEP RAMON PALAU MOLINS 02:25:08
77 85 JORDI PLANES VILLA 02:25:12
78 52 MICHAEL KELLEMBERGER 02:25:17
79 166 SERGI PORTA JOVE 02:25:21
80 45 FRANCESC GRAU CEUMA 02:26:00
81 247 ENRIC SUBIRÓS HERNÁNDEZ 02:26:11
82 321 JOSEP M ORPELLA FARRAN 02:27:12
83 232 SERGIO PADILLA SANTANA 02:27:15
84 272 LLUÍS CABRERA ROCH 02:27:58
85 537 RAFA RINS 02:27:59
86 256 ELOI AGUILAR BERTRAN 02:28:34
87 503 ENRIC ARBOLI ANDRES 02:28:42
88 133 JORGE CARDENAS BORJA 02:28:51
89 519 VICENTE VELERO OLLER 02:29:22
90 84 JEREMIES PLA BOIX 02:29:29
91 62 CESAR LUENGO BAEZA 02:29:39
92 153 RUBEN LAGRABA PUEYO 02:29:40
93 25 GERARD DESCARREGA DE LA VEGA 02:29:53
94 36 JORDI FRANQUET BORRULL 02:30:25
95 99 CARLOS SANCHEZ GARCIA 02:30:28
96 275 OSCAR CARRASCO 02:30:28
97 30 XAVIER FERRAN AGUSTÍ 02:31:50
98 171 NANO ROMIA JOVÉ 02:31:50
99 3 JORDI ALBÀ TEIXIDÓ 02:31:51
100 505 JOSEP MATEU CEBRIÁ 02:31:52
101 306 DAVID MARTIN BARES 02:32:31
102 63 LUIS MANGRANÉ FERRANDO 02:33:15
103 48 OSCAR HERNANDEZ MORENO 02:33:15
104 221 ARTURO HERRERA ALDA 02:33:44
105 107 FELIX SIRACH VEGA 02:34:10
106 96 ALBERT ROIG CANELA 02:34:11
107 339 CRISTIAN RUIZ PARDELL 02:34:24
108 98 JONATAN SANCHEZ ARPAL 02:34:49
109 95 SERGI ROCAMORA GOMIS 02:34:51
110 185 ANDREU ANGUERA VIDAL 02:35:23
111 323 MANU PEDREGOSA GONZALEZ 02:36:17
112 284 FELIX MANUEL ESTEVES DAS DORES 02:36:18
113 254 MÁRIO FILIPE AFONSO PIRES 02:36:21
114 190 VICTOR BERGA ABELLA 02:36:45
115 240 CARLOS RAIGAL GISTAU 02:37:07
116 11 RUBEN BELTRAN MAUREL 02:37:07
117 15 GILBERT BORRÀS GÓMEZ 02:37:45
118 230 JUAN ANTONIO NAVARRO MOYANO 02:37:51
119 516 JACINT BORDALBA SEGARRA 02:37:51
120 40 MANUEL GIRAL OLIVAN 02:37:52
121 55 DESI LAIN SANCHEZ 02:37:52
122 236 JORGE PASCUAL CABALLERO 02:37:59
123 132 CARLOS CAPDEVILA BELIO 02:38:25
124 35 MARCARLES LLUIS FORTUNY FONTGIVELL 02:38:44
125 181 VICTOR ALARCON BALAGUE 02:38:49
126 121 JOEL ARENILLAS BUITRAGO 02:39:39
127 337 MODEST RUANA LLOP 02:39:55
128 266 MIGUEL BASELGA DIAZ 02:39:57
129 123 DELFIN BARO CORTIELLA 02:40:07
130 31 SERGI FERRÉ VADILLO 02:40:22
131 169 XAVIER ROIGE TORRELL 02:40:33
132 261 SERGI ARASA FERNANDEZ 02:40:42
133 8 HARRY BARRAGAN 02:40:49
134 219 MAURI GRIGELMO DE LA CRUZ 02:41:42
135 309 LLUIS MATEU MONTAGUT 02:42:30
136 59 TONI LIÑAN LOPEZ 02:42:34
137 197 FERRAN CALVET BENITO 02:43:14
138 146 DANIEL GONZALEZ TOLRA 02:43:18
139 6 DAVID BARBECHO GRIMALDOS 02:43:45
140 327 NATXO PIJUAN CANALS 02:43:58
141 32 RICARD FIGUERES ZARAGOZA 02:44:00
142 242 JORDI RODRIGUEZ LÓPEZ 02:44:00
143 42 ALEX GÓMEZ BALADA 02:44:01
144 180 XAVIER VIDAL FERNÁNDEZ 02:45:14
145 12 ROBERTO BELTRAN MAUREL 02:45:32
146 2 EDUARD ABELLA FALCÓ 02:46:31
147 192 JOSEP Mª BORDALBA SEGARRA 02:46:31
148 224 SERGI LLEDÓ MUÑOZ 02:46:51
149 210 MIQUEL FIGUERAS MARTI 02:47:30
150 506 JOAN BAULIES CALERO 02:47:37
151 75 FCO JESÚS OJEDA LÓPEZ 02:47:54
152 515 EMILI RAMIREZ ARQUERO 02:48:00
153 140 HECTOR GARCIA RINCON 02:48:05
154 263 ROBERT BAGÉS VICENTE 02:48:15
155 244 MIGUEL SANCHEZ IBAÑEZ 02:48:19
156 97 JOAN ROIG SERRA 02:49:20
157 345 ROGER SURRIBAS CUSO 02:50:05
158 228 RAQUEL MOYA RUIZ 02:50:07
159 83 JESUS PIRLA PASCUAL 02:50:28
160 204 ENRIC DOMENECH MARTINEZ 02:50:48
161 101 SERGIO SANCHEZ PIZARRO 02:51:02
162 179 VICENÇ TRIQUELL DOMEYO 02:52:10
163 245 RAMON SECANELL SOLE 02:52:42
164 130 VÍCTOR CAIRÓ TORRES 02:53:24
165 509 MIGUEL GÓMEZ VELASCO 02:53:39
166 508 ESTEVE REÑÉ SOLÉ 02:53:40
167 122 ADRIA BARO CORRAL 02:53:41
168 196 DANIEL CAETANO VILAR 02:53:44
169 347 JAVI VALERA NAVARRO 02:54:04
170 241 HERIBERT RAMON MARTÍ 02:54:19
171 22 JOSEP CIVIT ORÓ 02:54:41
172 135 JORGE CHINE ZAPATER 02:55:22
173 137 ANTONIO FORNOS NAVARRO 02:55:31
174 157 SEBASTIÀ MÉNDEZ ALONSO 02:55:49
175 104 LLUÍS SERRA JORDA 02:55:54
176 10 JOSEP BATALLA VENGUT 02:57:26
177 329 DANI PITARQUE CEPRIA 02:58:02
178 29 CARLOS FAVÀ SANS 02:58:03
179 318 JOEL NAVARRO CABRERA 02:58:05
180 525 NURIA RIBAS SAMANIEGO 02:58:43
181 523 JOSEP CUTRONA SUÑE 02:58:44
182 74 SEBASTIÀ MORELL PRATS 02:59:13
183 44 TONI GRASA SERRADO 02:59:33
184 124 JORDI BARO ESPACHS 02:59:46
185 49 JULIAN HERRANZ DELGADO 03:00:01
186 33 MARTA FILLAT FUENTES 03:00:02
187 60 MIQUEL LLOVERA SOBRINO 03:00:13
188 264 RAÜL BARÓ CORTIELLA 03:00:34
189 79 JOSEP ROGELIO PENAS CASALS 03:00:58
190 340 JOSÉ RUIZ PÉREZ 03:01:04
191 255 JUANMA AGUILAR 03:01:47
192 20 ANDREU CARAVACA 03:01:55
193 9 ALEX BATALLA RUBIO 03:02:20
194 535 ENRIC SENTIS JUNCOSA 03:02:21
195 536 EMILIO BODRO CABALLE 03:02:22
196 65 ENRIC MARGALEF PALLARÉS 03:02:31
197 89 ADRIA PUCHE MAURIN 03:02:33
198 164 SERGI PLAZA TEIXIDO 03:03:00
199 355 XAVIER VILASECA PUEYO 03:03:02
200 303 SERGIO LUJANO CASTRO 03:03:07
201 86 DAVID PORCEL RODRIGUEZ 03:03:40
202 109 FRANCESC VALLES QUINTILLA 03:03:59
203 50 LARISA HOSLEAG LAZAR 03:05:17
204 512 SERGI FATANALS SISCART 03:05:18
205 229 SERGI MUÑOZ PACHECO 03:05:24
206 352 JOSE MIGUEL VIDIGAL MADERA 03:05:27
207 294 CARLOS GIMENO CASTEL 03:05:42
208 319 JOAN NAVARRO PITARCH 03:05:44
209 141 XAVI GARÍ ABELLA 03:07:19
210 184 SANTI ALIAGA 03:10:14
211 70 XAVI MINGUET ROCA 03:10:17
212 511 CARLOS RUBIO RUBIO 03:10:18
213 102 MIQUEL SANCHO MONTAÑES 03:12:51
214 223 FERNANDO JUAN APARICIO 03:12:52
215 315 MIGUEL MOYA GARCIA 03:13:56
216 267 ANDREU BERNADO GALOFRE 03:14:08
217 26 ALBERT DONÉS I ANTEQUERA 03:14:47
218 191 JORDI BORDALBA CAPELL 03:14:53
219 312 SERGI MONFA BINEFA 03:16:40
220 532 JORDI SIDREN ABELÓ 03:16:40
221 134 JORDI CASTELLNOU ROCA 03:18:17
222 280 ADRIÀ DUAIGÜES BEÀ 03:18:56
223 208 DIVINA FARRENY JUSTRIBÓ 03:19:30
224 530 ANTONIO VIDAL CAMELL 03:20:09
225 150 ERNESTO IBÁÑEZ BERNAL 03:21:46
226 147 DAVID GROS VIDAL 03:22:14
227 335 JOSEP LLUÍS RODRÍGUEZ GILART 03:22:52
228 533 ANTO MOISES SCHEZ FDEZ 03:23:55
229 332 ELIAS RAMAL LOPEZ 03:24:58
230 167 JOSEP MARIA PUIG FONTANET 03:27:01
231 7 JORDI BARBERA PONS 03:27:02
232 250 MIQUEL ÀNGEL VALL PERMIQUEL 03:28:11
233 127 RAMON BITRIA CASADO 03:28:28
234 270 ANDREA BRUNET GAVALDA 03:28:57
235 202 NÚRIA DE LA VEGA ROYO 03:28:57
236 194 FERRAN BRULL I LLEÓ 03:28:59
237 116 JOEL AGUSTI PUIGVERT 03:29:41
238 168 JORDI ROCA JOVÉ 03:29:41
239 118 DAVID ALARCÓN GONZÁLEZ 03:31:20
240 220 SANTIAGO GUADIA GUIU 03:31:21
241 330 ADRIÁN POBLADOR CORTÉS 03:31:29
242 528 DENÍS SORNET BALSEBRE 03:34:37
243 338 HÉCTOR RUANA PASCUAL 03:34:38
244 19 MARTA CAMI MOR 03:39:42
245 527 MARC GINOVART FUSTER 03:39:42
246 504 XAVIER MIR BUSON 03:43:09
247 160 IKER PEIRET ROIG 03:44:40
248 177 HECTOR SOROLLA SERES 03:44:41
249 316 VICTOR ELOY MUÑOZ PACHECO 03:45:22
250 526 GERARD RANDO FARRÉ 03:46:59
251 155 JOSEP MARSAL MARTI 03:47:06
252 131 XAVIER CALVO LALANA 03:47:32
253 119 ELOI ALVAREZ LALANA 03:47:32
254 259 MIGUEL ANGEL ALDANA ESTEBAN 03:50:07
255 143 FRANCIS GONZALEZ CASANOVA 03:57:02
256 311 ALBERT MODOL TEIXIDO 04:01:32
257 111 FRANCESC VIDAL FRANCH 04:01:35
258 295 CARLOS HERNANDEZ IGLESIAS 04:03:44
259 281 CARLOS JUAN ESTANY PALLEJA 04:03:45
260 51 JOSEP MARIA JIMENEZ LLORENS 04:07:06
261 297 JAVIER HERRERA MARTINEZ 04:11:22
262 189 ALBERT BARRERA CANO 04:11:22
263 349 JORDI VIDAL BERENGUER 04:11:24
264 307 DAVID MARTÍNEZ HERRERA 04:11:24
265 117 JOAN AIGE BITRIA 04:46:31
266 91 BENJAMÍ QUIROGA ARBONES 04:46:35